Weather in Kommunar

Russia / Kostroma Oblast     58°09′58″N   43°32′59″E
temp.,
°C
wind,
m/s
gust,
m/s
humid.,
%
clouds,
%
prec.,
mm/h
press.,
hPa
HPBL,
m
26 july, mon
mon2600:00+14w246198 0.0 102075
03:00+13wsw256486 0.0 1020121
06:00+14wsw276742 0.0 1021234
09:00+21w36445 0.0 1020901
12:00+24w463699 0.0 10192631
15:00+21w4848100 0.0 10191237
18:00+21w395417 0.0 1018757
21:00+18wsw3116499 0.0 1017338
27 july, tue
tue2700:00+14nnw278984 0.4 1019146
03:00+13nw259659 0.4 101993
06:00+15nw27910 0.0 1019233
09:00+20nnw36515 0.0 1019934
12:00+23nnw474483 0.0 10191840
15:00+19nw266199 0.0 1018308
18:00+21nnw3459100 0.0 1017995
21:00+15wnw22820 0.0 101719
28 july, wed
wed2800:00+12n11945 0.0 101813
03:00+11ne11815 0.0 101810
06:00+13nne11630 0.0 101865
09:00+20n11415 0.0 1016684
12:00+24wnw13325 0.0 10151614
15:00+25wnw25329 0.0 10132352
18:00+21sw225763 0.0 101128
21:00+19ssw286214 0.0 1010204
29 july, thu
thu2900:00+16sw2780100 0.0 1009128
03:00+15s269197 0.7 1007138
06:00+15sw2496100 0.6 1006161
09:00+17s3696100 0.9 1004350
12:00+20ssw457873 0.1 1003837
15:00+22wsw357450 0.9 1002952
18:00+21wsw37835 1.3 1001418
21:00+17sw3896100 2.6 1000192
30 july, fri
fri3000:00+17w4119519 0.0 1000505
03:00+15w289727 0.0 1002307
06:00+16w28945 0.0 1002249
09:00+23w46590 0.0 10031045
12:00+26w574349 0.0 10032199
15:00+27w4740100 0.0 10032233
18:00+22wsw385965 0.0 1003300
21:00+20wsw257046 0.1 1003122